This is the latest recevied weather packets stored in our database for station/object SR4DIG-13. If no packets are shown the sender has not sent any weather packets the latest 10 day(s).
| Time | Temp. | Humidity | Pressure | Rain* | Wind** | Luminosity | Snow |
|---|---|---|---|---|---|---|---|
| 1778163029 | 17.78° C | 61% | 1010.4 hPa | 0 mm | - | - | - |
| 1778162728 | 18.89° C | 60% | 1010.3 hPa | 0 mm | - | - | - |
| 1778162428 | 18.89° C | 60% | 1010.3 hPa | 0 mm | - | - | - |
| 1778162127 | 19.44° C | 59% | 1010.4 hPa | 0 mm | - | - | - |
| 1778161179 | 20° C | 57% | 1010.1 hPa | 0 mm | - | - | - |
| 1778160878 | 20° C | 57% | 1010 hPa | 0 mm | - | - | - |
| 1778160577 | 20° C | 56% | 1009.9 hPa | 0 mm | - | - | - |
| 1778160276 | 20° C | 55% | 1009.7 hPa | 0 mm | - | - | - |
| 1778159976 | 20° C | 55% | 1009.7 hPa | 0 mm | - | - | - |
| 1778159675 | 20.56° C | 54% | 1009.7 hPa | 0 mm | - | - | - |
| 1778159374 | 20.56° C | 53% | 1009.7 hPa | 0 mm | - | - | - |
| 1778159073 | 21.11° C | 53% | 1009.5 hPa | 0 mm | - | - | - |
| 1778158772 | 21.11° C | 53% | 1009.5 hPa | 0 mm | - | - | - |
| 1778158471 | 21.67° C | 52% | 1009.5 hPa | 0 mm | - | - | - |
| 1778158170 | 21.67° C | 52% | 1009.4 hPa | 0 mm | - | - | - |
| 1778157563 | 21.67° C | 52% | 1009.6 hPa | 0 mm | - | - | - |
| 1778157262 | 22.22° C | 50% | 1009.7 hPa | 0 mm | - | - | - |
| 1778156962 | 22.78° C | 50% | 1009.6 hPa | 0 mm | - | - | - |
| 1778156661 | 23.33° C | 50% | 1009.6 hPa | 0 mm | - | - | - |
| 1778156360 | 23.33° C | 51% | 1009.5 hPa | 0 mm | - | - | - |
| 1778156059 | 23.33° C | 51% | 1009.4 hPa | 0 mm | - | - | - |
| 1778155758 | 23.33° C | 51% | 1009.3 hPa | 0 mm | - | - | - |
| 1778155397 | 23.33° C | 51% | 1009.3 hPa | 0 mm | - | - | - |
| 1778155096 | 23.33° C | 51% | 1009.3 hPa | 0 mm | - | - | - |
| 1778154795 | 23.33° C | 51% | 1009.2 hPa | 0 mm | - | - | - |
* Rain since midnight (hover to see other rain measurements)
** Current wind speed in m/s (hover to see current wind gust speed)